Terminal Aerodrome Forecast
Issued by NWS New Orleans/Baton Rouge, LA

Home | Current Version | Previous Version | Text Only | Print | Product List | Glossary On
Versions: 1 2 3 4 5 6 7 8 9 10 11 12 13 14 15 16 17 18 19 20 21 22 23 24 25 26 27
000
FTUS44 KLIX 140500
TAFNEW
TAF
KNEW 140522Z 1406/1506 VRB05KT P6SM SCT040 SCT250
     FM141400 24008KT P6SM SCT035 SCT250 PROB30 1419/1424 2SM TSRA
      BKN030CB
     FM150100 VRB05KT P6SM SCT100 SCT250=

USA.gov is the U.S. government's official web portal to all federal, state and local government web resources and services.